M I D A S
Marine Information and Data Acquisition System
Tripno 2088 of the Zeeleeuw from 2011-02-15 05:59:19 to 2011-02-15 14:27:17
Back to CruiseResearch ActivitiesStationsMapUnderway DataData graphs

EquipmentUnitsComments
TimeDGPSUTC
LatitudeDGPSDM.mWGS84
LongitudeDGPSDM.mWGS84
SpeedMeteo Stationm/sRelative wind speed
DirectionMeteo StationdegRelative wind direction
TemperatureMeteo Stationdeg CelciusAir temperature
PressureMeteo StationPaAtmospheric pressure
HumidityMeteo Station%Relative humidity
Missing or incorrect values are displayed as -999
Metereological data collected by the RV Zeeleeuw from 2011-02-15 05:54:16 to 2011-02-15 15:52:14
                                                                                    Next 1000 lines
Time Latitude Longitude Speed Direction Temperature Pressure Humidity
2011-02-15 05:54:27 51°13.662 2°55.959 0.1 344 3.9 99850 49
2011-02-15 05:54:32 51°13.662 2°55.959 0.1 338 3.9 99850 48
2011-02-15 05:54:37 51°13.662 2°55.959 -999 349 3.9 99850 48
2011-02-15 05:54:42 51°13.662 2°55.959 -999 340 3.9 99850 48
2011-02-15 05:54:47 51°13.662 2°55.959 0.2 341 3.9 99850 48
2011-02-15 05:54:51 51°13.662 2°55.959 0.1 345 3.9 99850 48
2011-02-15 05:54:56 51°13.662 2°55.959 0.1 338 3.9 99850 48
2011-02-15 05:55:01 51°13.662 2°55.959 -999 340 3.9 99840 49
2011-02-15 05:55:07 51°13.662 2°55.959 0.1 340 3.9 99840 49
2011-02-15 05:55:12 51°13.662 2°55.959 0.1 338 3.9 99840 49
2011-02-15 05:55:17 51°13.662 2°55.959 0.1 344 3.9 99840 49
2011-02-15 05:55:22 51°13.662 2°55.959 0.1 344 3.9 99850 49
2011-02-15 05:55:27 51°13.662 2°55.959 -999 341 3.9 99850 49
2011-02-15 05:55:31 51°13.662 2°55.959 -999 346 3.9 99840 49
2011-02-15 05:55:37 51°13.662 2°55.959 0.1 338 3.9 99840 49
2011-02-15 05:55:42 51°13.662 2°55.959 0.1 335 3.9 99840 49
2011-02-15 05:55:47 51°13.662 2°55.959 0.1 341 3.9 99840 49
2011-02-15 05:55:52 51°13.662 2°55.959 0.1 345 3.9 99840 50
2011-02-15 05:55:56 51°13.662 2°55.959 -999 347 3.9 99840 50
2011-02-15 05:56:01 51°13.662 2°55.959 -999 336 3.9 99840 49
2011-02-15 05:56:06 51°13.662 2°55.959 0.1 337 3.9 99840 49
2011-02-15 05:56:11 51°13.662 2°55.959 0.1 337 3.9 99840 49
2011-02-15 05:56:16 51°13.662 2°55.959 -999 337 3.9 99840 49
2011-02-15 05:56:21 51°13.662 2°55.959 -999 339 3.9 99850 48
2011-02-15 05:56:26 51°13.662 2°55.958 0.1 344 3.9 99850 48
2011-02-15 05:56:31 51°13.662 2°55.958 0.1 349 3.9 99840 49
2011-02-15 05:56:36 51°13.662 2°55.958 -999 336 3.9 99840 49
2011-02-15 05:56:40 51°13.662 2°55.959 -999 335 3.9 99840 49
2011-02-15 05:56:45 51°13.662 2°55.959 0.1 344 3.9 99840 49
2011-02-15 05:56:50 51°13.662 2°55.959 0.1 348 3.9 99840 49
2011-02-15 05:56:55 51°13.662 2°55.959 0.1 347 3.9 99840 49
2011-02-15 05:57:01 51°13.662 2°55.959 0.1 349 3.9 99840 49
2011-02-15 05:57:06 51°13.662 2°55.959 -999 331 3.9 99840 49
2011-02-15 05:57:11 51°13.661 2°55.959 -999 333 3.9 99840 48
2011-02-15 05:57:16 51°13.661 2°55.959 -999 339 3.9 99840 48
2011-02-15 05:57:21 51°13.661 2°55.959 -999 337 3.9 99840 49
2011-02-15 05:57:25 51°13.661 2°55.959 -999 341 3.9 99840 49
2011-02-15 05:57:31 51°13.661 2°55.959 -999 339 3.9 99840 49
2011-02-15 05:57:36 51°13.661 2°55.959 0.5 340 3.9 99840 49
2011-02-15 05:57:41 51°13.661 2°55.959 0.3 340 3.9 99840 49
2011-02-15 05:57:45 51°13.661 2°55.959 0.1 349 3.9 99840 49
2011-02-15 05:57:50 51°13.661 2°55.959 0.1 346 3.9 99840 49
2011-02-15 05:57:56 51°13.661 2°55.959 -999 336 3.9 99840 49
2011-02-15 05:58:01 51°13.662 2°55.96 -999 334 3.9 99840 49
2011-02-15 05:58:05 51°13.661 2°55.959 0.1 334 3.9 99840 49
2011-02-15 05:58:10 51°13.662 2°55.96 0.1 340 3.9 99840 49
2011-02-15 05:58:15 51°13.662 2°55.96 -999 336 3.9 99840 49
2011-02-15 05:58:20 51°13.662 2°55.96 -999 343 3.9 99840 49
2011-02-15 05:58:26 51°13.662 2°55.96 -999 343 3.9 99840 49
2011-02-15 05:58:32 51°13.662 2°55.96 -999 343 3.9 99840 49
2011-02-15 05:58:37 51°13.662 2°55.96 0.1 337 3.9 99840 49
2011-02-15 05:58:42 51°13.662 2°55.96 0.1 339 3.9 99840 49
2011-02-15 05:58:47 51°13.662 2°55.96 -999 343 3.9 99840 49
2011-02-15 05:58:52 51°13.662 2°55.96 0.7 337 3.9 99840 48
2011-02-15 05:58:57 51°13.662 2°55.96 0.1 334 3.9 99840 48
2011-02-15 05:59:02 51°13.662 2°55.96 0.1 331 3.9 99840 49
2011-02-15 05:59:07 51°13.662 2°55.96 0.6 335 3.9 99840 49
2011-02-15 05:59:12 51°13.662 2°55.96 0.5 335 3.9 99840 49
2011-02-15 05:59:17 51°13.662 2°55.96 0.1 338 3.9 99840 49
2011-02-15 05:59:22 51°13.662 2°55.96 0.7 336 3.9 99840 49
2011-02-15 05:59:27 51°13.662 2°55.96 0.3 342 3.9 99840 49
2011-02-15 05:59:33 51°13.662 2°55.96 0.2 338 3.9 99840 49
2011-02-15 05:59:36 51°13.662 2°55.96 0.5 344 3.9 99840 49
2011-02-15 05:59:41 51°13.662 2°55.96 0.2 339 3.9 99840 49
2011-02-15 05:59:47 51°13.662 2°55.96 0.1 347 3.9 99840 49
2011-02-15 05:59:52 51°13.662 2°55.96 0.1 353 3.9 99840 48
2011-02-15 05:59:57 51°13.662 2°55.96 -999 354 3.9 99840 48
2011-02-15 06:00:02 51°13.662 2°55.96 -999 348 3.9 99840 49
2011-02-15 06:00:07 51°13.661 2°55.96 -999 344 3.9 99840 49
2011-02-15 06:00:12 51°13.662 2°55.96 -999 346 3.9 99840 49
2011-02-15 06:00:17 51°13.661 2°55.96 0.1 347 3.9 99840 49
2011-02-15 06:00:22 51°13.661 2°55.96 0.1 348 3.9 99840 49
2011-02-15 06:00:27 51°13.661 2°55.96 0.3 338 3.9 99840 49
2011-02-15 06:00:32 51°13.661 2°55.96 0.6 339 3.9 99830 49
2011-02-15 06:00:36 51°13.661 2°55.96 0.1 349 3.9 99830 49
2011-02-15 06:00:41 51°13.661 2°55.96 0.1 351 3.9 99840 49
2011-02-15 06:00:46 51°13.661 2°55.96 -999 340 3.9 99840 49
2011-02-15 06:00:52 51°13.661 2°55.96 -999 354 3.9 99830 49
2011-02-15 06:00:57 51°13.661 2°55.96 -999 351 3.9 99830 49
2011-02-15 06:01:02 51°13.66 2°55.96 -999 351 3.9 99830 49
2011-02-15 06:01:07 51°13.66 2°55.96 -999 343 3.9 99830 49
2011-02-15 06:01:12 51°13.66 2°55.96 0.1 348 3.9 99830 49
2011-02-15 06:01:17 51°13.66 2°55.959 0.1 355 3.9 99830 49
2011-02-15 06:01:22 51°13.66 2°55.959 0.1 352 3.9 99830 49
2011-02-15 06:01:27 51°13.661 2°55.959 -999 349 3.9 99830 49
2011-02-15 06:01:32 51°13.661 2°55.957 -999 346 3.9 99830 49
2011-02-15 06:01:37 51°13.662 2°55.953 -999 349 3.9 99830 49
2011-02-15 06:01:41 51°13.663 2°55.95 -999 350 3.9 99830 49
2011-02-15 06:01:46 51°13.664 2°55.945 -999 354 3.9 99830 49
2011-02-15 06:01:52 51°13.666 2°55.938 -999 351 3.9 99830 49
2011-02-15 06:01:57 51°13.668 2°55.932 0.1 1 3.9 99830 49
2011-02-15 06:02:02 51°13.669 2°55.924 0.1 2 3.9 99830 49
2011-02-15 06:02:07 51°13.671 2°55.917 -999 20 3.9 99830 49
2011-02-15 06:02:12 51°13.673 2°55.908 -999 15 3.9 99830 49
2011-02-15 06:02:17 51°13.675 2°55.9 0.1 351 3.9 99830 49
2011-02-15 06:02:22 51°13.676 2°55.891 0.1 357 3.9 99830 49
2011-02-15 06:02:27 51°13.678 2°55.882 -999 18 3.9 99830 49
2011-02-15 06:02:33 51°13.68 2°55.871 -999 351 3.9 99830 48
2011-02-15 06:02:37 51°13.682 2°55.864 -999 15 3.9 99830 48
2011-02-15 06:02:41 51°13.683 2°55.857 -999 13 3.9 99830 49
2011-02-15 06:02:47 51°13.685 2°55.846 -999 357 3.9 99830 49
2011-02-15 06:02:52 51°13.686 2°55.837 -999 2 3.9 99830 49
2011-02-15 06:02:57 51°13.687 2°55.828 -999 345 3.9 99830 49
2011-02-15 06:03:02 51°13.689 2°55.821 -999 347 3.9 99830 49
2011-02-15 06:03:07 51°13.69 2°55.812 -999 349 3.9 99830 49
2011-02-15 06:03:12 51°13.691 2°55.804 -999 344 3.9 99830 49
2011-02-15 06:03:17 51°13.692 2°55.796 -999 356 3.9 99830 49
2011-02-15 06:03:22 51°13.693 2°55.789 -999 1 3.9 99830 49
2011-02-15 06:03:27 51°13.694 2°55.781 -999 22 3.9 99830 49
2011-02-15 06:03:32 51°13.694 2°55.774 -999 24 3.9 99830 49
2011-02-15 06:03:37 51°13.695 2°55.767 -999 22 3.9 99830 49
2011-02-15 06:03:42 51°13.695 2°55.761 -999 22 3.9 99830 49
2011-02-15 06:03:47 51°13.695 2°55.754 -999 32 3.9 99830 49
2011-02-15 06:03:52 51°13.695 2°55.748 -999 28 3.9 99830 49
2011-02-15 06:03:57 51°13.696 2°55.744 0.1 31 3.9 99830 49
2011-02-15 06:04:02 51°13.696 2°55.74 0.1 38 3.9 99830 49
2011-02-15 06:04:06 51°13.696 2°55.739 0.1 26 3.9 99830 49
2011-02-15 06:04:12 51°13.696 2°55.738 -999 29 3.9 99830 49
2011-02-15 06:04:17 51°13.697 2°55.737 0.3 27 3.9 99830 49
2011-02-15 06:04:22 51°13.698 2°55.737 0.4 15 3.9 99830 49
2011-02-15 06:04:27 51°13.698 2°55.738 0.1 20 3.9 99830 49
2011-02-15 06:04:31 51°13.699 2°55.738 0.1 22 3.9 99830 49
2011-02-15 06:04:36 51°13.7 2°55.739 0.2 25 3.9 99830 49
2011-02-15 06:04:41 51°13.701 2°55.74 0.2 24 3.9 99830 49
2011-02-15 06:04:46 51°13.702 2°55.74 0.2 25 3.9 99830 49
2011-02-15 06:04:51 51°13.704 2°55.742 0.2 19 3.9 99830 49
2011-02-15 06:04:55 51°13.705 2°55.743 1.1 34 3.9 99830 49
2011-02-15 06:05:00 51°13.707 2°55.743 0.4 37 3.9 99830 49
2011-02-15 06:05:05 51°13.709 2°55.744 0.1 29 3.9 99830 49
2011-02-15 06:05:10 51°13.711 2°55.745 0.1 25 3.9 99830 48
2011-02-15 06:05:15 51°13.713 2°55.745 -999 37 3.9 99830 48
2011-02-15 06:05:19 51°13.715 2°55.746 -999 28 3.9 99830 49
2011-02-15 06:05:24 51°13.717 2°55.746 -999 27 3.9 99830 49
2011-02-15 06:05:29 51°13.72 2°55.746 -999 45 3.9 99830 49
2011-02-15 06:05:34 51°13.723 2°55.745 -999 34 3.9 99830 49
2011-02-15 06:05:39 51°13.727 2°55.744 -999 23 3.9 99830 49
2011-02-15 06:05:44 51°13.731 2°55.742 -999 34 3.9 99830 49
2011-02-15 06:05:49 51°13.735 2°55.739 -999 22 3.9 99840 49
2011-02-15 06:05:55 51°13.739 2°55.734 -999 34 3.9 99840 49
2011-02-15 06:06:00 51°13.743 2°55.73 -999 23 3.9 99840 49
2011-02-15 06:06:06 51°13.749 2°55.724 -999 34 3.9 99840 49
2011-02-15 06:06:11 51°13.753 2°55.718 -999 23 3.9 99830 49
2011-02-15 06:06:17 51°13.759 2°55.71 -999 270 3.9 99830 49
2011-02-15 06:06:22 51°13.765 2°55.704 -999 25 3.9 99840 49
2011-02-15 06:06:27 51°13.771 2°55.697 -999 43 3.9 99840 49
2011-02-15 06:06:31 51°13.776 2°55.69 -999 33 3.9 99830 49
2011-02-15 06:06:37 51°13.784 2°55.68 -999 15 3.9 99830 49
2011-02-15 06:06:42 51°13.792 2°55.671 -999 24 3.9 99830 49
2011-02-15 06:06:47 51°13.801 2°55.663 -999 20 3.9 99830 49
2011-02-15 06:06:52 51°13.81 2°55.654 -999 26 3.9 99830 49
2011-02-15 06:06:56 51°13.818 2°55.648 -999 12 3.9 99830 49
2011-02-15 06:07:02 51°13.83 2°55.637 -999 12 3.9 99830 49
2011-02-15 06:07:07 51°13.84 2°55.629 -999 358 3.9 99830 49
2011-02-15 06:07:12 51°13.851 2°55.62 -999 358 3.9 99830 49
2011-02-15 06:07:17 51°13.863 2°55.611 -999 349 3.9 99830 49
2011-02-15 06:07:21 51°13.872 2°55.604 -999 356 3.9 99830 49
2011-02-15 06:07:26 51°13.884 2°55.595 -999 337 3.9 99830 49
2011-02-15 06:07:31 51°13.896 2°55.586 -999 -999 3.9 99840 49
2011-02-15 06:07:37 51°13.91 2°55.576 -999 354 3.9 99840 49
2011-02-15 06:07:41 51°13.92 2°55.569 -999 355 3.9 99830 49
2011-02-15 06:07:46 51°13.932 2°55.56 -999 344 3.9 99830 49
2011-02-15 06:07:51 51°13.945 2°55.551 -999 344 3.9 99840 48
2011-02-15 06:07:56 51°13.957 2°55.542 -999 343 3.9 99840 48
2011-02-15 06:08:01 51°13.969 2°55.533 -999 341 4 99830 49
2011-02-15 06:08:06 51°13.982 2°55.524 -999 336 4 99830 49
2011-02-15 06:08:11 51°13.995 2°55.516 -999 338 4 99830 49
2011-02-15 06:08:16 51°14.007 2°55.507 -999 332 4 99830 49
2011-02-15 06:08:21 51°14.019 2°55.498 -999 353 4 99830 49
2011-02-15 06:08:26 51°14.032 2°55.49 -999 358 4 99830 49
2011-02-15 06:08:31 51°14.045 2°55.481 -999 6 4 99830 49
2011-02-15 06:08:35 51°14.055 2°55.474 -999 346 4 99830 49
2011-02-15 06:08:40 51°14.068 2°55.465 -999 345 4 99830 49
2011-02-15 06:08:45 51°14.081 2°55.456 -999 336 4 99830 49
2011-02-15 06:08:50 51°14.093 2°55.446 -999 338 4 99830 49
2011-02-15 06:08:55 51°14.106 2°55.437 -999 337 4 99830 49
2011-02-15 06:09:00 51°14.119 2°55.428 -999 338 4 99830 49
2011-02-15 06:09:05 51°14.132 2°55.418 -999 345 4 99830 49
2011-02-15 06:09:10 51°14.145 2°55.408 -999 345 4 99830 49
2011-02-15 06:09:14 51°14.155 2°55.401 -999 341 4 99830 49
2011-02-15 06:09:19 51°14.168 2°55.39 -999 335 4 99830 49
2011-02-15 06:09:24 51°14.181 2°55.38 -999 342 4 99830 49
2011-02-15 06:09:29 51°14.193 2°55.368 -999 335 4 99830 49
2011-02-15 06:09:34 51°14.206 2°55.357 -999 335 4 99830 49
2011-02-15 06:09:39 51°14.219 2°55.346 -999 331 4 99830 49
2011-02-15 06:09:44 51°14.231 2°55.334 -999 326 4 99830 49
2011-02-15 06:09:48 51°14.241 2°55.325 -999 318 4 99830 49
2011-02-15 06:09:53 51°14.253 2°55.312 -999 318 4 99830 49
2011-02-15 06:09:58 51°14.266 2°55.3 -999 22 4 99830 49
2011-02-15 06:10:03 51°14.278 2°55.287 -999 34 4 99830 49
2011-02-15 06:10:08 51°14.29 2°55.274 -999 22 4 99830 49
2011-02-15 06:10:13 51°14.302 2°55.261 -999 34 4 99830 49
2011-02-15 06:10:18 51°14.315 2°55.248 -999 23 4 99830 49
2011-02-15 06:10:23 51°14.328 2°55.235 -999 34 4 99830 49
2011-02-15 06:10:28 51°14.34 2°55.22 -999 23 4 99830 48
2011-02-15 06:10:33 51°14.352 2°55.207 -999 322 4 99830 48
2011-02-15 06:10:38 51°14.365 2°55.193 -999 325 4 99830 49
2011-02-15 06:10:43 51°14.378 2°55.18 -999 324 4 99830 49
2011-02-15 06:10:48 51°14.391 2°55.165 -999 325 4 99830 49
2011-02-15 06:10:53 51°14.404 2°55.151 -999 318 4 99830 49
2011-02-15 06:10:58 51°14.417 2°55.137 -999 318 4 99830 49
2011-02-15 06:11:02 51°14.427 2°55.125 -999 34 4 99830 49
2011-02-15 06:11:08 51°14.443 2°55.108 -999 22 4 99830 49
2011-02-15 06:11:13 51°14.456 2°55.093 -999 237 4 99830 49
2011-02-15 06:11:18 51°14.469 2°55.077 -999 23 4 99830 49
2011-02-15 06:11:23 51°14.482 2°55.062 -999 237 4 99830 49
2011-02-15 06:11:28 51°14.495 2°55.047 -999 23 4 99830 49
2011-02-15 06:11:33 51°14.509 2°55.032 -999 243 4 99830 49
2011-02-15 06:11:38 51°14.523 2°55.016 -999 250 4 99830 49
2011-02-15 06:11:43 51°14.537 2°55.001 -999 242 4 99830 49
2011-02-15 06:11:48 51°14.55 2°54.984 -999 23 4 99820 49
2011-02-15 06:11:53 51°14.565 2°54.968 -999 241 4 99820 49
2011-02-15 06:11:58 51°14.579 2°54.95 -999 23 4 99830 49
2011-02-15 06:12:02 51°14.59 2°54.938 -999 318 4 99830 49
2011-02-15 06:12:08 51°14.608 2°54.918 -999 323 4 99830 49
2011-02-15 06:12:13 51°14.622 2°54.901 -999 34 4 99830 49
2011-02-15 06:12:18 51°14.637 2°54.884 -999 22 4 99830 49
2011-02-15 06:12:23 51°14.652 2°54.868 -999 34 4 99830 49
2011-02-15 06:12:28 51°14.667 2°54.851 -999 22 4 99830 49
2011-02-15 06:12:33 51°14.681 2°54.834 -999 241 4 99830 49
2011-02-15 06:12:38 51°14.696 2°54.817 -999 23 4 99830 49
2011-02-15 06:12:42 51°14.708 2°54.804 -999 34 4 99830 49
2011-02-15 06:12:48 51°14.726 2°54.784 -999 23 4 99830 49
2011-02-15 06:12:53 51°14.741 2°54.768 -999 34 4 99830 49
2011-02-15 06:12:58 51°14.756 2°54.75 -999 23 4 99820 49
2011-02-15 06:13:02 51°14.767 2°54.736 -999 34 4 99820 49
2011-02-15 06:13:08 51°14.785 2°54.716 -999 23 4 99830 48
2011-02-15 06:13:13 51°14.8 2°54.699 -999 34 4 99830 48
2011-02-15 06:13:18 51°14.815 2°54.682 -999 23 4.1 99820 49
2011-02-15 06:13:23 51°14.829 2°54.665 -999 316 4.1 99820 49
2011-02-15 06:13:28 51°14.844 2°54.648 -999 316 4 99820 49
2011-02-15 06:13:33 51°14.858 2°54.63 -999 34 4 99820 49
2011-02-15 06:13:38 51°14.873 2°54.614 -999 23 4.1 99820 49
2011-02-15 06:13:42 51°14.885 2°54.599 0.1 315 4.1 99820 49
2011-02-15 06:13:48 51°14.902 2°54.578 0.1 21 4.1 99820 49
2011-02-15 06:13:53 51°14.916 2°54.559 0.1 233 4.1 99820 49
2011-02-15 06:13:58 51°14.93 2°54.541 -999 25 4 99820 49
2011-02-15 06:14:03 51°14.944 2°54.523 0.1 245 4 99820 49
2011-02-15 06:14:08 51°14.958 2°54.504 0.1 21 4.1 99820 49
2011-02-15 06:14:13 51°14.971 2°54.485 -999 239 4.1 99820 49
2011-02-15 06:14:18 51°14.985 2°54.467 -999 24 4.1 99820 49
2011-02-15 06:14:22 51°14.997 2°54.452 0.1 245 4.1 99820 49
2011-02-15 06:14:28 51°15.013 2°54.43 0.1 21 4.1 99820 49
2011-02-15 06:14:33 51°15.027 2°54.411 2 253 4.1 99820 49
2011-02-15 06:14:38 51°15.041 2°54.394 1.2 251 4.1 99820 49
2011-02-15 06:14:43 51°15.056 2°54.377 0.5 244 4.1 99820 49
2011-02-15 06:14:48 51°15.07 2°54.359 0.7 20 4.1 99820 49
2011-02-15 06:14:53 51°15.084 2°54.342 0.5 248 4.1 99820 49
2011-02-15 06:14:58 51°15.099 2°54.324 0.4 22 4.1 99820 48
2011-02-15 06:15:02 51°15.11 2°54.309 1.1 244 4.1 99820 48
2011-02-15 06:15:08 51°15.126 2°54.287 0.7 244 4.1 99820 49
2011-02-15 06:15:13 51°15.14 2°54.268 0.9 245 4.1 99820 49
2011-02-15 06:15:18 51°15.154 2°54.249 0.8 246 4.1 99820 49
2011-02-15 06:15:22 51°15.165 2°54.234 1.6 246 4.1 99820 49
2011-02-15 06:15:28 51°15.181 2°54.211 1.4 251 4.1 99820 50
2011-02-15 06:15:33 51°15.195 2°54.192 3.1 255 4.1 99820 50
2011-02-15 06:15:38 51°15.209 2°54.173 2.2 258 4.1 99820 50
2011-02-15 06:15:42 51°15.22 2°54.159 0.7 253 4.1 99820 50
2011-02-15 06:15:48 51°15.237 2°54.137 1.5 254 4.1 99820 49
2011-02-15 06:15:53 51°15.251 2°54.119 1.5 270 4.1 99820 49
2011-02-15 06:15:58 51°15.265 2°54.102 0.8 270 4.1 99820 50
2011-02-15 06:16:03 51°15.279 2°54.084 0.2 260 4.1 99820 50
2011-02-15 06:16:08 51°15.294 2°54.066 0.1 255 4.2 99820 49
2011-02-15 06:16:13 51°15.308 2°54.049 0.4 261 4.2 99820 49
2011-02-15 06:16:18 51°15.322 2°54.03 0.4 263 4.2 99820 49
2011-02-15 06:16:22 51°15.333 2°54.015 0.4 257 4.2 99820 49
2011-02-15 06:16:28 51°15.35 2°53.994 0.3 263 4.1 99820 49
2011-02-15 06:16:33 51°15.364 2°53.975 0.1 257 4.1 99820 49
2011-02-15 06:16:38 51°15.377 2°53.955 0.3 252 4.1 99820 49
2011-02-15 06:16:43 51°15.391 2°53.936 0.5 262 4.1 99820 49
2011-02-15 06:16:48 51°15.405 2°53.918 0.3 257 4.2 99820 49
2011-02-15 06:16:53 51°15.419 2°53.9 0.3 250 4.2 99820 49
2011-02-15 06:16:58 51°15.433 2°53.882 0.2 19 4.2 99820 49
2011-02-15 06:17:02 51°15.444 2°53.867 2.3 250 4.2 99820 49
2011-02-15 06:17:08 51°15.461 2°53.845 2.3 252 4.2 99820 48
2011-02-15 06:17:13 51°15.476 2°53.828 2.7 255 4.2 99820 48
2011-02-15 06:17:18 51°15.49 2°53.809 2.9 253 4.2 99820 48
2011-02-15 06:17:23 51°15.503 2°53.791 2 257 4.2 99820 48
2011-02-15 06:17:28 51°15.517 2°53.772 2.5 253 4.2 99820 48
2011-02-15 06:17:33 51°15.531 2°53.753 3.9 254 4.2 99820 48
2011-02-15 06:17:38 51°15.544 2°53.733 3.8 254 4.2 99820 48
2011-02-15 06:17:42 51°15.555 2°53.718 2.9 260 4.2 99820 48
2011-02-15 06:17:48 51°15.571 2°53.694 3.2 260 4.2 99820 50
2011-02-15 06:17:53 51°15.584 2°53.675 0.8 265 4.2 99820 50
2011-02-15 06:17:58 51°15.598 2°53.655 0.4 265 4.2 99820 49
2011-02-15 06:18:02 51°15.609 2°53.64 0.1 263 4.2 99820 49
2011-02-15 06:18:08 51°15.625 2°53.617 0.1 263 4.2 99820 50
2011-02-15 06:18:13 51°15.639 2°53.599 0.1 243 4.2 99820 50
2011-02-15 06:18:18 51°15.653 2°53.581 0.1 255 4.2 99820 49
2011-02-15 06:18:23 51°15.667 2°53.563 -999 250 4.2 99820 49
2011-02-15 06:18:28 51°15.681 2°53.545 -999 251 4.2 99820 48
2011-02-15 06:18:33 51°15.695 2°53.527 0.1 256 4.2 99820 48
2011-02-15 06:18:38 51°15.71 2°53.511 0.1 255 4.2 99820 49
2011-02-15 06:18:42 51°15.722 2°53.498 -999 257 4.2 99820 49
2011-02-15 06:18:48 51°15.74 2°53.48 -999 262 4.2 99820 49
2011-02-15 06:18:53 51°15.756 2°53.467 -999 36 4.2 99820 49
2011-02-15 06:18:58 51°15.772 2°53.454 -999 264 4.2 99820 49
2011-02-15 06:19:03 51°15.789 2°53.443 0.1 37 4.2 99820 49
2011-02-15 06:19:08 51°15.805 2°53.432 0.1 24 4.2 99820 49
2011-02-15 06:19:13 51°15.822 2°53.421 -999 34 4.2 99820 49
2011-02-15 06:19:18 51°15.838 2°53.412 -999 23 4.2 99820 49
2011-02-15 06:19:22 51°15.852 2°53.404 -999 34 4.2 99820 49
2011-02-15 06:19:28 51°15.872 2°53.391 -999 23 4.2 99820 49
2011-02-15 06:19:33 51°15.889 2°53.381 -999 34 4.2 99820 49
2011-02-15 06:19:38 51°15.905 2°53.37 -999 23 4.2 99820 49
2011-02-15 06:19:42 51°15.918 2°53.361 -999 34 4.2 99820 49
2011-02-15 06:19:48 51°15.937 2°53.345 -999 23 4.2 99820 49
2011-02-15 06:19:53 51°15.954 2°53.333 -999 264 4.2 99820 49
2011-02-15 06:19:58 51°15.97 2°53.321 -999 21 4.2 99820 49
2011-02-15 06:20:02 51°15.983 2°53.31 -999 262 4.2 99820 49
2011-02-15 06:20:08 51°16.002 2°53.295 -999 23 4.2 99820 49
2011-02-15 06:20:13 51°16.018 2°53.283 0.1 257 4.2 99820 49
2011-02-15 06:20:18 51°16.034 2°53.271 0.3 255 4.2 99810 49
2011-02-15 06:20:22 51°16.047 2°53.261 0.1 258 4.2 99810 49
2011-02-15 06:20:28 51°16.067 2°53.248 0.1 20 4.2 99820 49
2011-02-15 06:20:33 51°16.083 2°53.237 0.1 243 4.2 99820 49
2011-02-15 06:20:38 51°16.1 2°53.225 0.1 252 4.2 99810 49
2011-02-15 06:20:42 51°16.113 2°53.215 0.1 268 4.2 99810 49
2011-02-15 06:20:48 51°16.132 2°53.202 0.1 25 4.2 99820 49
2011-02-15 06:20:53 51°16.149 2°53.19 0.1 270 4.2 99820 49
2011-02-15 06:20:58 51°16.165 2°53.178 0.1 270 4.2 99810 49
2011-02-15 06:21:03 51°16.182 2°53.166 0.1 270 4.2 99810 49
2011-02-15 06:21:08 51°16.198 2°53.154 0.1 270 4.2 99810 48
2011-02-15 06:21:13 51°16.213 2°53.141 0.1 269 4.2 99810 48
2011-02-15 06:21:18 51°16.229 2°53.128 0.1 269 4.3 99810 49
2011-02-15 06:21:23 51°16.245 2°53.116 0.1 269 4.3 99810 49
2011-02-15 06:21:28 51°16.262 2°53.103 0.1 268 4.2 99820 49
2011-02-15 06:21:33 51°16.278 2°53.091 0.1 268 4.2 99820 49
2011-02-15 06:21:38 51°16.294 2°53.078 -999 269 4.2 99810 49
2011-02-15 06:21:42 51°16.307 2°53.068 -999 269 4.2 99810 49
2011-02-15 06:21:48 51°16.326 2°53.052 -999 269 4.2 99810 49
2011-02-15 06:21:53 51°16.342 2°53.04 -999 266 4.2 99810 49
2011-02-15 06:21:58 51°16.358 2°53.028 -999 270 4.2 99820 49
2011-02-15 06:22:02 51°16.371 2°53.018 -999 268 4.2 99820 49
2011-02-15 06:22:08 51°16.391 2°53.004 -999 268 4.2 99810 49
2011-02-15 06:22:13 51°16.407 2°52.992 -999 266 4.2 99810 49
2011-02-15 06:22:18 51°16.423 2°52.979 -999 263 4.3 99810 49
2011-02-15 06:22:22 51°16.436 2°52.969 -999 265 4.3 99810 49
2011-02-15 06:22:28 51°16.456 2°52.955 -999 269 4.3 99810 49
2011-02-15 06:22:33 51°16.472 2°52.942 -999 261 4.3 99810 49
2011-02-15 06:22:38 51°16.488 2°52.93 0.1 270 4.2 99810 49
2011-02-15 06:22:43 51°16.504 2°52.917 0.1 270 4.2 99810 49
2011-02-15 06:22:48 51°16.52 2°52.904 0.1 269 4.2 99810 49
2011-02-15 06:22:53 51°16.536 2°52.892 -999 39 4.2 99810 49
2011-02-15 06:22:58 51°16.552 2°52.879 0.1 20 4.2 99810 49
2011-02-15 06:23:02 51°16.565 2°52.869 0.1 34 4.2 99810 49
2011-02-15 06:23:08 51°16.584 2°52.853 0.1 259 4.2 99810 49
2011-02-15 06:23:13 51°16.6 2°52.84 -999 269 4.2 99810 49
2011-02-15 06:23:18 51°16.615 2°52.827 -999 30 4.2 99810 49
2011-02-15 06:23:23 51°16.631 2°52.814 -999 264 4.2 99810 49
2011-02-15 06:23:28 51°16.647 2°52.802 -999 267 4.2 99810 49
2011-02-15 06:23:33 51°16.663 2°52.789 -999 257 4.2 99810 49
2011-02-15 06:23:38 51°16.679 2°52.776 -999 23 4.3 99810 49
2011-02-15 06:23:43 51°16.695 2°52.764 0.1 269 4.3 99810 49
2011-02-15 06:23:48 51°16.71 2°52.751 0.1 269 4.2 99810 48
2011-02-15 06:23:53 51°16.726 2°52.738 -999 39 4.2 99810 48
2011-02-15 06:23:58 51°16.742 2°52.726 -999 25 4.2 99810 49
2011-02-15 06:24:02 51°16.755 2°52.717 -999 36 4.2 99810 49
2011-02-15 06:24:08 51°16.775 2°52.704 0.1 19 4.2 99810 49
2011-02-15 06:24:13 51°16.791 2°52.694 0.1 34 4.2 99810 49
2011-02-15 06:24:18 51°16.808 2°52.685 0.1 23 4.2 99810 49
2011-02-15 06:24:22 51°16.821 2°52.677 -999 34 4.2 99810 49
2011-02-15 06:24:28 51°16.84 2°52.664 -999 23 4.2 99810 49
2011-02-15 06:24:33 51°16.857 2°52.655 -999 34 4.2 99810 49
2011-02-15 06:24:38 51°16.873 2°52.644 -999 23 4.2 99810 49
2011-02-15 06:24:42 51°16.886 2°52.635 -999 34 4.2 99810 49
2011-02-15 06:24:48 51°16.905 2°52.623 -999 23 4.2 99810 49
2011-02-15 06:24:53 51°16.921 2°52.611 -999 34 4.2 99810 49
2011-02-15 06:24:58 51°16.937 2°52.599 0.1 18 4.2 99810 50
2011-02-15 06:25:03 51°16.953 2°52.587 0.1 34 4.2 99810 50
2011-02-15 06:25:08 51°16.969 2°52.574 0.1 23 4.2 99810 49
2011-02-15 06:25:13 51°16.985 2°52.562 -999 34 4.2 99810 49
2011-02-15 06:25:18 51°17.001 2°52.55 -999 22 4.2 99810 49
2011-02-15 06:25:23 51°17.017 2°52.539 -999 34 4.2 99810 49
2011-02-15 06:25:28 51°17.033 2°52.529 -999 22 4.2 99810 49
2011-02-15 06:25:33 51°17.05 2°52.52 -999 34 4.2 99810 49
2011-02-15 06:25:38 51°17.067 2°52.511 -999 22 4.3 99810 49
2011-02-15 06:25:42 51°17.08 2°52.506 -999 34 4.3 99810 49
2011-02-15 06:25:48 51°17.101 2°52.499 -999 33 4.3 99810 49
2011-02-15 06:25:53 51°17.118 2°52.495 -999 31 4.3 99810 49
2011-02-15 06:25:58 51°17.135 2°52.492 -999 29 4.3 99810 49
2011-02-15 06:26:03 51°17.152 2°52.49 -999 30 4.3 99810 49
2011-02-15 06:26:08 51°17.17 2°52.49 -999 27 4.3 99800 49
2011-02-15 06:26:13 51°17.188 2°52.489 -999 23 4.3 99800 49
2011-02-15 06:26:18 51°17.205 2°52.488 -999 23 4.3 99810 49
2011-02-15 06:26:22 51°17.219 2°52.488 0.7 12 4.3 99810 49
2011-02-15 06:26:28 51°17.24 2°52.488 0.5 15 4.3 99810 48
2011-02-15 06:26:33 51°17.257 2°52.488 0.1 21 4.3 99810 48
2011-02-15 06:26:38 51°17.275 2°52.488 0.1 23 4.3 99800 49
2011-02-15 06:26:42 51°17.289 2°52.487 -999 25 4.3 99800 49
2011-02-15 06:26:48 51°17.31 2°52.486 -999 28 4.3 99800 49
2011-02-15 06:26:53 51°17.327 2°52.485 -999 19 4.3 99800 49
2011-02-15 06:26:58 51°17.345 2°52.485 -999 24 4.3 99800 49
2011-02-15 06:27:02 51°17.359 2°52.483 -999 34 4.3 99800 49
2011-02-15 06:27:08 51°17.38 2°52.481 -999 39 4.3 99800 49
2011-02-15 06:27:13 51°17.397 2°52.479 -999 30 4.3 99800 49
2011-02-15 06:27:18 51°17.415 2°52.478 -999 29 4.3 99800 49
2011-02-15 06:27:23 51°17.432 2°52.477 -999 26 4.3 99800 49
2011-02-15 06:27:28 51°17.45 2°52.476 -999 25 4.3 99800 49
2011-02-15 06:27:33 51°17.467 2°52.475 -999 27 4.3 99800 49
2011-02-15 06:27:38 51°17.485 2°52.474 -999 25 4.3 99800 49
2011-02-15 06:27:43 51°17.502 2°52.473 -999 16 4.3 99800 49
2011-02-15 06:27:48 51°17.52 2°52.472 -999 16 4.3 99810 49
2011-02-15 06:27:53 51°17.537 2°52.471 -999 17 4.3 99810 49
2011-02-15 06:27:58 51°17.555 2°52.469 -999 13 4.3 99800 49
2011-02-15 06:28:02 51°17.568 2°52.468 -999 16 4.3 99800 49
2011-02-15 06:28:08 51°17.589 2°52.467 -999 14 4.3 99800 49
2011-02-15 06:28:13 51°17.607 2°52.466 -999 5 4.3 99800 49
2011-02-15 06:28:18 51°17.624 2°52.464 -999 16 4.3 99800 49
2011-02-15 06:28:23 51°17.641 2°52.464 -999 20 4.3 99800 49
2011-02-15 06:28:28 51°17.659 2°52.463 -999 21 4.3 99800 49
2011-02-15 06:28:33 51°17.676 2°52.462 -999 21 4.3 99800 49
2011-02-15 06:28:38 51°17.694 2°52.461 -999 23 4.4 99800 49
2011-02-15 06:28:42 51°17.708 2°52.46 -999 23 4.4 99800 49
2011-02-15 06:28:48 51°17.729 2°52.458 -999 29 4.4 99800 49
2011-02-15 06:28:53 51°17.747 2°52.457 -999 20 4.4 99800 49
2011-02-15 06:28:58 51°17.764 2°52.455 -999 16 4.4 99800 49
2011-02-15 06:29:03 51°17.781 2°52.454 -999 16 4.4 99800 49
2011-02-15 06:29:08 51°17.799 2°52.452 -999 24 4.4 99800 48
2011-02-15 06:29:13 51°17.816 2°52.451 1.1 23 4.4 99800 48
2011-02-15 06:29:18 51°17.834 2°52.449 0.9 26 4.4 99800 49
2011-02-15 06:29:23 51°17.851 2°52.447 0.3 22 4.4 99800 49
2011-02-15 06:29:28 51°17.869 2°52.446 0.1 24 4.4 99800 49
2011-02-15 06:29:33 51°17.886 2°52.445 0.1 27 4.4 99800 49
2011-02-15 06:29:38 51°17.904 2°52.443 -999 24 4.4 99800 49
2011-02-15 06:29:42 51°17.918 2°52.442 -999 24 4.4 99800 49
2011-02-15 06:29:48 51°17.938 2°52.441 -999 26 4.4 99800 49
2011-02-15 06:29:53 51°17.956 2°52.44 -999 18 4.4 99800 49
2011-02-15 06:29:58 51°17.973 2°52.439 -999 25 4.4 99800 49
2011-02-15 06:30:03 51°17.991 2°52.437 -999 21 4.4 99800 49
2011-02-15 06:30:08 51°18.008 2°52.436 -999 24 4.4 99800 49
2011-02-15 06:30:13 51°18.026 2°52.434 -999 22 4.4 99800 49
2011-02-15 06:30:18 51°18.043 2°52.433 -999 23 4.4 99800 49
2011-02-15 06:30:22 51°18.057 2°52.431 -999 21 4.4 99800 49
2011-02-15 06:30:28 51°18.078 2°52.43 -999 16 4.4 99800 49
2011-02-15 06:30:33 51°18.096 2°52.428 -999 19 4.4 99800 49
2011-02-15 06:30:38 51°18.113 2°52.427 -999 18 4.4 99800 49
2011-02-15 06:30:43 51°18.131 2°52.425 -999 26 4.4 99800 49
2011-02-15 06:30:48 51°18.148 2°52.423 -999 27 4.4 99800 49
2011-02-15 06:30:53 51°18.166 2°52.421 -999 28 4.4 99800 49
2011-02-15 06:30:58 51°18.183 2°52.419 -999 28 4.4 99800 49
2011-02-15 06:31:02 51°18.197 2°52.417 -999 29 4.4 99800 49
2011-02-15 06:31:08 51°18.218 2°52.415 -999 32 4.4 99800 49
2011-02-15 06:31:13 51°18.236 2°52.413 -999 35 4.4 99800 49
2011-02-15 06:31:18 51°18.253 2°52.411 -999 33 4.4 99800 49
2011-02-15 06:31:23 51°18.271 2°52.41 -999 25 4.4 99800 49
2011-02-15 06:31:28 51°18.288 2°52.409 -999 20 4.4 99800 49
2011-02-15 06:31:33 51°18.306 2°52.407 -999 25 4.4 99800 49
2011-02-15 06:31:38 51°18.323 2°52.405 -999 27 4.4 99790 49
2011-02-15 06:31:43 51°18.341 2°52.404 -999 24 4.4 99790 49
2011-02-15 06:31:48 51°18.358 2°52.402 -999 24 4.4 99800 48
2011-02-15 06:31:53 51°18.375 2°52.401 -999 19 4.4 99800 48
2011-02-15 06:31:58 51°18.393 2°52.4 -999 19 4.4 99800 49
2011-02-15 06:32:02 51°18.407 2°52.398 -999 21 4.4 99800 49
2011-02-15 06:32:08 51°18.428 2°52.396 -999 22 4.4 99800 49
2011-02-15 06:32:13 51°18.446 2°52.395 -999 24 4.4 99800 49
2011-02-15 06:32:18 51°18.463 2°52.394 -999 22 4.4 99800 49
2011-02-15 06:32:23 51°18.48 2°52.392 -999 15 4.4 99800 49
2011-02-15 06:32:28 51°18.498 2°52.39 -999 19 4.4 99800 49
2011-02-15 06:32:33 51°18.515 2°52.388 -999 20 4.4 99800 49
2011-02-15 06:32:38 51°18.533 2°52.386 -999 22 4.4 99790 49
2011-02-15 06:32:42 51°18.547 2°52.384 -999 35 4.4 99790 49
2011-02-15 06:32:48 51°18.568 2°52.382 -999 36 4.5 99800 49
2011-02-15 06:32:53 51°18.585 2°52.38 -999 36 4.5 99800 49
2011-02-15 06:32:58 51°18.603 2°52.377 -999 38 4.5 99800 49
2011-02-15 06:33:03 51°18.62 2°52.375 -999 38 4.5 99800 49
2011-02-15 06:33:08 51°18.638 2°52.372 -999 38 4.5 99800 49
2011-02-15 06:33:13 51°18.655 2°52.37 -999 42 4.5 99800 49
2011-02-15 06:33:18 51°18.673 2°52.368 -999 39 4.5 99800 49
2011-02-15 06:33:23 51°18.69 2°52.367 -999 35 4.5 99800 49
2011-02-15 06:33:28 51°18.708 2°52.365 -999 35 4.5 99800 49
2011-02-15 06:33:33 51°18.725 2°52.363 -999 30 4.5 99800 49
2011-02-15 06:33:38 51°18.743 2°52.361 -999 27 4.5 99800 49
2011-02-15 06:33:42 51°18.757 2°52.36 -999 26 4.5 99800 49
2011-02-15 06:33:48 51°18.778 2°52.357 -999 17 4.5 99800 49
2011-02-15 06:33:53 51°18.795 2°52.355 -999 27 4.5 99800 49
2011-02-15 06:33:58 51°18.813 2°52.353 -999 26 4.5 99800 49
2011-02-15 06:34:03 51°18.831 2°52.351 -999 28 4.5 99800 49
2011-02-15 06:34:08 51°18.848 2°52.349 -999 29 4.5 99800 49
2011-02-15 06:34:13 51°18.866 2°52.347 -999 27 4.5 99800 49
2011-02-15 06:34:18 51°18.883 2°52.344 -999 29 4.5 99800 49
2011-02-15 06:34:22 51°18.897 2°52.343 -999 32 4.5 99800 49
2011-02-15 06:34:28 51°18.918 2°52.34 -999 32 4.5 99800 48
2011-02-15 06:34:33 51°18.936 2°52.338 -999 35 4.5 99800 48
2011-02-15 06:34:38 51°18.953 2°52.336 -999 35 4.5 99790 49
2011-02-15 06:34:43 51°18.971 2°52.333 -999 26 4.5 99790 49
2011-02-15 06:34:48 51°18.988 2°52.331 -999 26 4.5 99790 49
2011-02-15 06:34:53 51°19.005 2°52.329 -999 16 4.5 99790 49
2011-02-15 06:34:58 51°19.023 2°52.327 -999 9 4.5 99800 49
2011-02-15 06:35:02 51°19.037 2°52.325 -999 12 4.5 99800 49
2011-02-15 06:35:08 51°19.058 2°52.322 -999 22 4.5 99800 49
2011-02-15 06:35:13 51°19.075 2°52.32 -999 28 4.5 99800 49
2011-02-15 06:35:18 51°19.093 2°52.318 -999 28 4.5 99790 49
2011-02-15 06:35:23 51°19.11 2°52.315 -999 29 4.5 99790 49
2011-02-15 06:35:28 51°19.128 2°52.313 -999 30 4.5 99790 49
2011-02-15 06:35:33 51°19.145 2°52.311 -999 33 4.5 99790 49
2011-02-15 06:35:38 51°19.162 2°52.309 -999 27 4.5 99800 49
2011-02-15 06:35:43 51°19.18 2°52.306 -999 36 4.5 99800 49
2011-02-15 06:35:48 51°19.197 2°52.304 -999 36 4.5 99800 49
2011-02-15 06:35:53 51°19.215 2°52.302 -999 34 4.5 99800 49
2011-02-15 06:35:58 51°19.232 2°52.3 -999 34 4.5 99790 49
2011-02-15 06:36:02 51°19.246 2°52.298 -999 32 4.5 99790 49
2011-02-15 06:36:08 51°19.267 2°52.296 -999 34 4.5 99790 49
2011-02-15 06:36:13 51°19.285 2°52.294 -999 31 4.5 99790 49
2011-02-15 06:36:18 51°19.302 2°52.291 -999 25 4.5 99800 49
2011-02-15 06:36:23 51°19.32 2°52.288 -999 36 4.5 99800 49
2011-02-15 06:36:28 51°19.337 2°52.286 -999 37 4.5 99790 49
2011-02-15 06:36:33 51°19.355 2°52.284 -999 28 4.5 99790 49
2011-02-15 06:36:38 51°19.372 2°52.282 -999 32 4.5 99790 49
2011-02-15 06:36:42 51°19.386 2°52.28 -999 19 4.5 99790 49
2011-02-15 06:36:48 51°19.407 2°52.277 -999 11 4.5 99790 49
2011-02-15 06:36:53 51°19.424 2°52.277 -999 16 4.5 99790 49
2011-02-15 06:36:58 51°19.442 2°52.277 -999 14 4.5 99790 49
2011-02-15 06:37:03 51°19.459 2°52.277 -999 11 4.5 99790 49
2011-02-15 06:37:08 51°19.477 2°52.277 -999 21 4.5 99790 48
2011-02-15 06:37:13 51°19.494 2°52.277 -999 19 4.5 99790 48
2011-02-15 06:37:18 51°19.511 2°52.277 -999 10 4.5 99790 49
2011-02-15 06:37:23 51°19.529 2°52.278 -999 20 4.5 99790 49
2011-02-15 06:37:28 51°19.546 2°52.278 -999 13 4.6 99790 49
2011-02-15 06:37:33 51°19.564 2°52.279 -999 20 4.6 99790 49
2011-02-15 06:37:38 51°19.581 2°52.279 -999 21 4.6 99790 49
2011-02-15 06:37:42 51°19.595 2°52.28 -999 15 4.6 99790 49
2011-02-15 06:37:48 51°19.616 2°52.28 -999 11 4.6 99790 49
2011-02-15 06:37:53 51°19.634 2°52.28 -999 23 4.6 99790 49
2011-02-15 06:37:58 51°19.652 2°52.281 -999 21 4.6 99790 49
2011-02-15 06:38:03 51°19.669 2°52.281 -999 21 4.6 99790 49
2011-02-15 06:38:08 51°19.687 2°52.282 -999 19 4.6 99790 49
2011-02-15 06:38:13 51°19.704 2°52.282 -999 28 4.6 99790 49
2011-02-15 06:38:18 51°19.722 2°52.283 -999 28 4.6 99790 49
2011-02-15 06:38:22 51°19.736 2°52.283 -999 20 4.6 99790 49
2011-02-15 06:38:28 51°19.757 2°52.283 -999 26 4.6 99790 49
2011-02-15 06:38:33 51°19.774 2°52.284 -999 26 4.6 99790 49
2011-02-15 06:38:38 51°19.792 2°52.284 -999 21 4.6 99790 49
2011-02-15 06:38:43 51°19.81 2°52.285 -999 18 4.6 99790 49
2011-02-15 06:38:48 51°19.827 2°52.284 -999 20 4.6 99790 49
2011-02-15 06:38:53 51°19.845 2°52.285 -999 24 4.6 99790 49
2011-02-15 06:38:58 51°19.863 2°52.285 -999 18 4.6 99790 49
2011-02-15 06:39:02 51°19.877 2°52.285 -999 16 4.6 99790 49
2011-02-15 06:39:08 51°19.898 2°52.286 -999 18 4.6 99790 49
2011-02-15 06:39:13 51°19.915 2°52.286 -999 30 4.6 99790 49
2011-02-15 06:39:18 51°19.933 2°52.287 -999 21 4.6 99790 49
2011-02-15 06:39:23 51°19.951 2°52.287 -999 27 4.6 99790 49
2011-02-15 06:39:28 51°19.968 2°52.287 -999 22 4.6 99790 49
2011-02-15 06:39:33 51°19.986 2°52.287 -999 25 4.6 99790 49
2011-02-15 06:39:38 51°20.003 2°52.288 -999 18 4.6 99790 49
2011-02-15 06:39:43 51°20.021 2°52.289 -999 26 4.6 99790 49
2011-02-15 06:39:48 51°20.039 2°52.289 -999 24 4.6 99790 48
2011-02-15 06:39:53 51°20.056 2°52.288 -999 25 4.6 99790 48
2011-02-15 06:39:58 51°20.074 2°52.288 -999 24 4.6 99790 49
2011-02-15 06:40:02 51°20.088 2°52.288 -999 23 4.6 99790 49
2011-02-15 06:40:08 51°20.109 2°52.288 -999 21 4.6 99790 49
2011-02-15 06:40:13 51°20.127 2°52.288 -999 26 4.6 99790 49
2011-02-15 06:40:18 51°20.145 2°52.288 -999 25 4.6 99790 49
2011-02-15 06:40:23 51°20.162 2°52.287 -999 23 4.6 99790 49
2011-02-15 06:40:28 51°20.18 2°52.288 -999 16 4.6 99790 49
2011-02-15 06:40:33 51°20.197 2°52.289 -999 24 4.6 99790 49
2011-02-15 06:40:38 51°20.215 2°52.289 -999 23 4.6 99790 49
2011-02-15 06:40:42 51°20.229 2°52.29 -999 20 4.6 99790 49
2011-02-15 06:40:48 51°20.25 2°52.291 -999 15 4.6 99790 49
2011-02-15 06:40:53 51°20.268 2°52.292 -999 26 4.6 99790 49
2011-02-15 06:40:58 51°20.286 2°52.294 -999 21 4.6 99790 49
2011-02-15 06:41:03 51°20.303 2°52.296 -999 23 4.6 99790 49
2011-02-15 06:41:08 51°20.321 2°52.299 -999 27 4.6 99790 49
2011-02-15 06:41:13 51°20.338 2°52.303 -999 19 4.6 99790 49
2011-02-15 06:41:18 51°20.356 2°52.306 -999 18 4.6 99790 49
2011-02-15 06:41:23 51°20.373 2°52.309 -999 15 4.6 99790 49
2011-02-15 06:41:28 51°20.391 2°52.312 -999 13 4.6 99790 49
2011-02-15 06:41:33 51°20.408 2°52.316 -999 14 4.6 99790 49
2011-02-15 06:41:38 51°20.426 2°52.319 -999 18 4.6 99790 49
2011-02-15 06:41:42 51°20.44 2°52.322 -999 21 4.6 99790 49
2011-02-15 06:41:48 51°20.461 2°52.327 -999 24 4.6 99790 49
2011-02-15 06:41:53 51°20.479 2°52.331 -999 22 4.6 99790 49
2011-02-15 06:41:58 51°20.496 2°52.334 -999 25 4.6 99780 49
2011-02-15 06:42:03 51°20.513 2°52.337 -999 22 4.6 99780 49
2011-02-15 06:42:08 51°20.531 2°52.34 -999 21 4.6 99780 49
2011-02-15 06:42:13 51°20.548 2°52.344 -999 16 4.6 99780 49
2011-02-15 06:42:18 51°20.565 2°52.347 -999 16 4.6 99780 49
2011-02-15 06:42:22 51°20.579 2°52.35 -999 20 4.6 99780 49
2011-02-15 06:42:28 51°20.6 2°52.354 -999 20 4.6 99790 48
2011-02-15 06:42:33 51°20.617 2°52.358 -999 9 4.6 99790 48
2011-02-15 06:42:38 51°20.635 2°52.362 -999 18 4.6 99790 49
2011-02-15 06:42:43 51°20.652 2°52.366 -999 14 4.6 99790 49
2011-02-15 06:42:48 51°20.67 2°52.37 -999 21 4.6 99790 49
2011-02-15 06:42:53 51°20.688 2°52.373 -999 15 4.6 99790 49
2011-02-15 06:42:58 51°20.705 2°52.377 -999 18 4.6 99780 49
2011-02-15 06:43:02 51°20.719 2°52.379 -999 19 4.6 99780 49
2011-02-15 06:43:08 51°20.74 2°52.382 -999 18 4.6 99790 49
2011-02-15 06:43:13 51°20.758 2°52.385 -999 17 4.6 99790 49
2011-02-15 06:43:18 51°20.775 2°52.388 -999 19 4.6 99780 49
2011-02-15 06:43:23 51°20.793 2°52.392 -999 9 4.6 99780 49
2011-02-15 06:43:28 51°20.81 2°52.395 -999 9 4.6 99780 49
2011-02-15 06:43:33 51°20.827 2°52.397 -999 20 4.6 99780 49
2011-02-15 06:43:38 51°20.845 2°52.4 -999 17 4.6 99780 49
2011-02-15 06:43:43 51°20.863 2°52.403 -999 18 4.6 99780 49
2011-02-15 06:43:48 51°20.88 2°52.406 -999 17 4.6 99780 49
2011-02-15 06:43:53 51°20.898 2°52.409 -999 20 4.6 99780 49
2011-02-15 06:43:58 51°20.915 2°52.411 -999 20 4.6 99780 49
2011-02-15 06:44:02 51°20.929 2°52.413 -999 20 4.6 99780 49
2011-02-15 06:44:08 51°20.95 2°52.416 -999 19 4.6 99780 49
2011-02-15 06:44:13 51°20.968 2°52.419 -999 26 4.6 99780 49
2011-02-15 06:44:18 51°20.985 2°52.422 -999 25 4.7 99780 49
2011-02-15 06:44:22 51°20.999 2°52.424 -999 20 4.7 99780 49
2011-02-15 06:44:28 51°21.021 2°52.427 -999 19 4.7 99780 49
2011-02-15 06:44:33 51°21.038 2°52.43 -999 26 4.7 99780 49
2011-02-15 06:44:38 51°21.056 2°52.433 -999 26 4.6 99780 49
2011-02-15 06:44:42 51°21.07 2°52.435 -999 19 4.6 99780 49
2011-02-15 06:44:48 51°21.091 2°52.438 -999 18 4.6 99780 49
2011-02-15 06:44:53 51°21.109 2°52.44 -999 17 4.6 99780 49
2011-02-15 06:44:58 51°21.126 2°52.443 -999 19 4.6 99780 49
2011-02-15 06:45:03 51°21.144 2°52.446 -999 28 4.6 99780 49
2011-02-15 06:45:08 51°21.162 2°52.449 -999 29 4.6 99780 48
2011-02-15 06:45:13 51°21.18 2°52.451 -999 16 4.6 99780 48
2011-02-15 06:45:18 51°21.197 2°52.453 -999 23 4.6 99790 49
2011-02-15 06:45:23 51°21.215 2°52.455 -999 15 4.6 99790 49
2011-02-15 06:45:28 51°21.233 2°52.459 -999 21 4.6 99780 49
2011-02-15 06:45:33 51°21.251 2°52.463 -999 23 4.6 99780 49
2011-02-15 06:45:38 51°21.268 2°52.466 -999 27 4.6 99790 49
2011-02-15 06:45:42 51°21.282 2°52.469 -999 26 4.6 99790 49
2011-02-15 06:45:48 51°21.304 2°52.472 -999 25 4.7 99780 49
2011-02-15 06:45:53 51°21.321 2°52.476 -999 23 4.7 99780 49
2011-02-15 06:45:58 51°21.339 2°52.48 -999 21 4.6 99780 49
2011-02-15 06:46:03 51°21.356 2°52.483 -999 27 4.6 99780 49
2011-02-15 06:46:08 51°21.374 2°52.486 -999 22 4.6 99780 49
2011-02-15 06:46:13 51°21.391 2°52.488 -999 18 4.6 99780 49
2011-02-15 06:46:18 51°21.409 2°52.491 -999 20 4.6 99780 49
2011-02-15 06:46:22 51°21.423 2°52.492 -999 16 4.6 99780 49
2011-02-15 06:46:28 51°21.444 2°52.495 -999 10 4.6 99780 49
2011-02-15 06:46:33 51°21.462 2°52.497 -999 13 4.6 99780 49
2011-02-15 06:46:38 51°21.48 2°52.5 -999 20 4.6 99780 49
2011-02-15 06:46:42 51°21.494 2°52.502 -999 22 4.6 99780 49
2011-02-15 06:46:48 51°21.515 2°52.505 -999 28 4.6 99780 49
2011-02-15 06:46:53 51°21.533 2°52.508 -999 20 4.6 99780 49
2011-02-15 06:46:58 51°21.551 2°52.511 -999 16 4.6 99780 49
2011-02-15 06:47:02 51°21.565 2°52.513 -999 24 4.6 99780 49
2011-02-15 06:47:08 51°21.586 2°52.516 -999 23 4.6 99780 49
2011-02-15 06:47:13 51°21.604 2°52.519 -999 19 4.6 99780 49
2011-02-15 06:47:18 51°21.622 2°52.521 -999 20 4.6 99780 49
2011-02-15 06:47:23 51°21.639 2°52.524 -999 23 4.6 99780 49
2011-02-15 06:47:28 51°21.657 2°52.526 -999 26 4.6 99780 49
2011-02-15 06:47:33 51°21.675 2°52.529 -999 24 4.6 99780 49
2011-02-15 06:47:38 51°21.693 2°52.532 -999 26 4.6 99780 49
2011-02-15 06:47:43 51°21.71 2°52.535 -999 20 4.6 99780 49
2011-02-15 06:47:48 51°21.728 2°52.538 -999 12 4.6 99780 48
2011-02-15 06:47:53 51°21.746 2°52.541 -999 13 4.6 99780 48
2011-02-15 06:47:58 51°21.763 2°52.544 3.7 10 4.6 99770 49
2011-02-15 06:48:02 51°21.777 2°52.547 2 19 4.6 99770 49
2011-02-15 06:48:08 51°21.799 2°52.55 3.2 17 4.6 99780 49
2011-02-15 06:48:13 51°21.816 2°52.552 3.5 14 4.6 99780 49
2011-02-15 06:48:18 51°21.834 2°52.555 4.2 14 4.6 99780 49
2011-02-15 06:48:23 51°21.852 2°52.558 0.2 16 4.6 99780 49
2011-02-15 06:48:28 51°21.87 2°52.561 0.1 17 4.7 99780 48
2011-02-15 06:48:33 51°21.887 2°52.563 -999 16 4.7 99780 48
2011-02-15 06:48:38 51°21.905 2°52.566 -999 16 4.7 99770 48
2011-02-15 06:48:43 51°21.923 2°52.568 -999 16 4.7 99770 48
2011-02-15 06:48:48 51°21.941 2°52.571 -999 14 4.7 99780 49
2011-02-15 06:48:53 51°21.959 2°52.573 4.4 19 4.7 99780 49
2011-02-15 06:48:58 51°21.976 2°52.576 4.3 20 4.6 99780 49
2011-02-15 06:49:02 51°21.991 2°52.579 4.9 24 4.6 99780 49
2011-02-15 06:49:08 51°22.012 2°52.583 4.4 23 4.6 99780 50
2011-02-15 06:49:13 51°22.03 2°52.586 4.8 23 4.6 99780 50
2011-02-15 06:49:18 51°22.047 2°52.589 4.2 22 4.6 99780 49
2011-02-15 06:49:23 51°22.065 2°52.593 3.2 22 4.6 99780 49
2011-02-15 06:49:28 51°22.083 2°52.596 3.5 19 4.6 99770 49
2011-02-15 06:49:33 51°22.101 2°52.601 5.1 23 4.6 99770 49
2011-02-15 06:49:38 51°22.119 2°52.604 4.5 20 4.6 99770 49
2011-02-15 06:49:43 51°22.136 2°52.608 4.9 20 4.6 99770 49
2011-02-15 06:49:48 51°22.154 2°52.61 3.3 22 4.6 99780 48
2011-02-15 06:49:53 51°22.172 2°52.614 1.4 19 4.6 99780 48
2011-02-15 06:49:58 51°22.189 2°52.617 3.4 23 4.6 99770 48
2011-02-15 06:50:02 51°22.204 2°52.62 3.8 16 4.6 99770 48
2011-02-15 06:50:08 51°22.225 2°52.624 3.2 20 4.6 99770 49
2011-02-15 06:50:13 51°22.243 2°52.627 3.1 21 4.6 99770 49
2011-02-15 06:50:18 51°22.26 2°52.63 3.2 18 4.6 99770 49
2011-02-15 06:50:23 51°22.278 2°52.632 2.1 23 4.6 99770 49
2011-02-15 06:50:28 51°22.296 2°52.636 2.6 24 4.6 99780 49
2011-02-15 06:50:33 51°22.314 2°52.638 3.3 13 4.6 99780 49
2011-02-15 06:50:38 51°22.332 2°52.641 3.1 16 4.6 99780 49
2011-02-15 06:50:43 51°22.35 2°52.644 4.5 16 4.6 99780 49
2011-02-15 06:50:48 51°22.367 2°52.647 4.5 17 4.6 99780 50
2011-02-15 06:50:53 51°22.385 2°52.649 4.2 21 4.6 99780 50
2011-02-15 06:50:58 51°22.403 2°52.652 3.8 25 4.6 99780 50
2011-02-15 06:51:03 51°22.42 2°52.655 3.7 23 4.6 99780 50
2011-02-15 06:51:08 51°22.438 2°52.658 3.6 19 4.6 99770 48
2011-02-15 06:51:13 51°22.456 2°52.661 2.6 17 4.6 99770 48
2011-02-15 06:51:18 51°22.473 2°52.665 3.3 19 4.6 99770 49
2011-02-15 06:51:23 51°22.491 2°52.668 3.4 16 4.6 99770 49
2011-02-15 06:51:28 51°22.509 2°52.67 3.8 10 4.6 99780 50
2011-02-15 06:51:33 51°22.526 2°52.673 2.4 9 4.6 99780 50
2011-02-15 06:51:38 51°22.544 2°52.676 2.1 7 4.6 99780 48
2011-02-15 06:51:43 51°22.562 2°52.679 3.7 14 4.6 99780 48
2011-02-15 06:51:48 51°22.58 2°52.683 3.6 17 4.6 99780 50
2011-02-15 06:51:53 51°22.597 2°52.685 3.2 15 4.6 99780 50
2011-02-15 06:51:58 51°22.615 2°52.688 3.6 11 4.6 99780 48
2011-02-15 06:52:03 51°22.633 2°52.69 2.9 15 4.6 99780 48
2011-02-15 06:52:08 51°22.65 2°52.693 2 14 4.6 99780 48
2011-02-15 06:52:13 51°22.668 2°52.695 3.7 15 4.6 99780 48
2011-02-15 06:52:18 51°22.686 2°52.698 4.1 18 4.6 99780 48
2011-02-15 06:52:23 51°22.703 2°52.7 4.5 18 4.6 99780 48
2011-02-15 06:52:28 51°22.721 2°52.704 4.2 9 4.7 99780 50
2011-02-15 06:52:33 51°22.739 2°52.707 3.9 20 4.7 99780 50
2011-02-15 06:52:38 51°22.756 2°52.711 3.4 21 4.6 99780 50
2011-02-15 06:52:43 51°22.774 2°52.713 4.7 23 4.6 99780 50
2011-02-15 06:52:48 51°22.792 2°52.717 4.7 22 4.7 99780 49
2011-02-15 06:52:53 51°22.809 2°52.719 4.4 24 4.7 99780 49
2011-02-15 06:52:58 51°22.827 2°52.723 4 22 4.7 99780 48
2011-02-15 06:53:03 51°22.845 2°52.726 2.6 14 4.7 99780 48
2011-02-15 06:53:08 51°22.862 2°52.729 3 17 4.7 99780 47
2011-02-15 06:53:13 51°22.88 2°52.732 5.6 18 4.7 99780 47
2011-02-15 06:53:18 51°22.897 2°52.737 5.1 17 4.6 99780 48
2011-02-15 06:53:23 51°22.914 2°52.742 4.8 22 4.6 99780 48
2011-02-15 06:53:28 51°22.932 2°52.746 4 15 4.6 99780 50
2011-02-15 06:53:33 51°22.949 2°52.751 3 16 4.6 99780 50
2011-02-15 06:53:38 51°22.967 2°52.757 4.4 18 4.7 99770 50
2011-02-15 06:53:43 51°22.984 2°52.763 4.2 18 4.7 99770 50
2011-02-15 06:53:47 51°22.998 2°52.768 4.7 19 4.6 99770 50
2011-02-15 06:53:53 51°23.018 2°52.775 3.4 14 4.6 99770 50
2011-02-15 06:53:58 51°23.036 2°52.781 3.1 16 4.6 99770 50
2011-02-15 06:54:02 51°23.049 2°52.786 2.5 16 4.6 99770 50
2011-02-15 06:54:08 51°23.07 2°52.793 3.7 16 4.6 99770 48
2011-02-15 06:54:13 51°23.088 2°52.798 4 18 4.6 99770 48
2011-02-15 06:54:18 51°23.105 2°52.803 4.1 17 4.6 99770 50
2011-02-15 06:54:23 51°23.122 2°52.809 4 19 4.6 99770 50
2011-02-15 06:54:28 51°23.139 2°52.814 4.1 19 4.6 99770 48
2011-02-15 06:54:33 51°23.157 2°52.82 2.7 22 4.6 99770 48
2011-02-15 06:54:38 51°23.174 2°52.826 2.3 22 4.6 99780 48
2011-02-15 06:54:43 51°23.191 2°52.832 3.1 14 4.6 99780 48
2011-02-15 06:54:48 51°23.209 2°52.838 3.2 15 4.6 99770 48
2011-02-15 06:54:53 51°23.226 2°52.844 4.2 18 4.6 99770 48
2011-02-15 06:54:58 51°23.243 2°52.85 3.4 16 4.6 99780 48
2011-02-15 06:55:03 51°23.261 2°52.855 3.1 20 4.6 99780 48
2011-02-15 06:55:08 51°23.278 2°52.861 2.9 19 4.6 99770 50
2011-02-15 06:55:13 51°23.295 2°52.867 2.1 17 4.6 99770 50
2011-02-15 06:55:18 51°23.312 2°52.873 3.8 20 4.6 99770 50
2011-02-15 06:55:22 51°23.326 2°52.877 4.4 21 4.6 99770 50
2011-02-15 06:55:28 51°23.347 2°52.883 4.5 23 4.6 99770 50
2011-02-15 06:55:33 51°23.364 2°52.888 3.1 22 4.6 99770 50
2011-02-15 06:55:38 51°23.381 2°52.893 3.5 16 4.6 99770 48
2011-02-15 06:55:42 51°23.395 2°52.897 3.8 16 4.6 99770 48
2011-02-15 06:55:48 51°23.416 2°52.904 4.1 15 4.6 99770 49
2011-02-15 06:55:53 51°23.433 2°52.908 4.2 18 4.6 99770 49
2011-02-15 06:55:58 51°23.451 2°52.914 4.6 18 4.6 99770 50
2011-02-15 06:56:02 51°23.465 2°52.919 5.2 21 4.6 99770 50
2011-02-15 06:56:08 51°23.485 2°52.926 5.4 21 4.6 99770 48
2011-02-15 06:56:13 51°23.503 2°52.93 4.1 20 4.6 99770 48
2011-02-15 06:56:18 51°23.52 2°52.936 3.7 20 4.6 99770 50
2011-02-15 06:56:23 51°23.538 2°52.941 3.5 21 4.6 99770 50
2011-02-15 06:56:28 51°23.555 2°52.946 2.2 20 4.6 99770 48
2011-02-15 06:56:33 51°23.573 2°52.952 2.7 23 4.6 99770 48
2011-02-15 06:56:38 51°23.59 2°52.957 2.8 20 4.6 99770 50
2011-02-15 06:56:43 51°23.607 2°52.962 4.5 15 4.6 99770 50
2011-02-15 06:56:48 51°23.625 2°52.968 5.3 17 4.6 99770 48
2011-02-15 06:56:53 51°23.642 2°52.973 5.5 15 4.6 99770 48
2011-02-15 06:56:58 51°23.66 2°52.979 5.7 20 4.6 99770 50
2011-02-15 06:57:03 51°23.677 2°52.985 5.7 22 4.6 99770 50
2011-02-15 06:57:08 51°23.694 2°52.99 5 22 4.7 99770 50
2011-02-15 06:57:13 51°23.711 2°52.996 4.9 24 4.7 99770 50
2011-02-15 06:57:18 51°23.729 2°53.001 4.7 23 4.6 99770 50
2011-02-15 06:57:23 51°23.746 2°53.006 4.6 21 4.6 99770 50
2011-02-15 06:57:28 51°23.764 2°53.011 4.2 19 4.6 99770 50
2011-02-15 06:57:33 51°23.781 2°53.017 5.7 15 4.6 99770 50
2011-02-15 06:57:38 51°23.798 2°53.022 5.7 18 4.6 99770 48
2011-02-15 06:57:43 51°23.816 2°53.028 4.4 19 4.6 99770 48
2011-02-15 06:57:48 51°23.833 2°53.032 3.7 18 4.6 99770 49
2011-02-15 06:57:53 51°23.85 2°53.038 3.1 16 4.6 99770 49
2011-02-15 06:57:58 51°23.868 2°53.042 3.8 13 4.6 99770 48
2011-02-15 06:58:02 51°23.882 2°53.045 4.6 14 4.6 99770 48
2011-02-15 06:58:08 51°23.903 2°53.05 4 18 4.6 99770 49
2011-02-15 06:58:13 51°23.92 2°53.054 4.2 23 4.6 99770 49
2011-02-15 06:58:18 51°23.938 2°53.058 3.6 21 4.6 99770 51
2011-02-15 06:58:23 51°23.955 2°53.063 4.5 20 4.6 99770 51
2011-02-15 06:58:27 51°23.969 2°53.067 0.3 18 4.6 99770 47
2011-02-15 06:58:33 51°23.99 2°53.073 4.8 23 4.6 99770 47
2011-02-15 06:58:38 51°24.007 2°53.079 5.5 23 4.6 99770 49
2011-02-15 06:58:42 51°24.021 2°53.083 5.4 21 4.6 99770 49
2011-02-15 06:58:48 51°24.042 2°53.09 5.2 23 4.6 99780 50
2011-02-15 06:58:53 51°24.06 2°53.095 5.4 22 4.6 99780 50
2011-02-15 06:58:58 51°24.076 2°53.1 5.1 22 4.6 99780 50
2011-02-15 06:59:03 51°24.094 2°53.105 3.4 23 4.6 99780 50
2011-02-15 06:59:08 51°24.111 2°53.11 3.3 22 4.6 99770 50
2011-02-15 06:59:13 51°24.129 2°53.115 3.6 18 4.6 99770 50
2011-02-15 06:59:18 51°24.146 2°53.12 4.2 13 4.6 99770 48
2011-02-15 06:59:23 51°24.163 2°53.125 3.9 16 4.6 99770 48
2011-02-15 06:59:28 51°24.181 2°53.13 5.3 18 4.6 99770 50
2011-02-15 06:59:33 51°24.198 2°53.136 4.3 22 4.6 99770 50
2011-02-15 06:59:38 51°24.215 2°53.141 5.2 21 4.6 99780 50
2011-02-15 06:59:43 51°24.233 2°53.146 4.5 22 4.6 99780 50
2011-02-15 06:59:48 51°24.25 2°53.151 4.7 24 4.6 99770 49
2011-02-15 06:59:53 51°24.267 2°53.157 4.2 22 4.6 99770 49
2011-02-15 06:59:58 51°24.284 2°53.163 3.7 21 4.6 99770 50
2011-02-15 07:00:02 51°24.298 2°53.168 3.6 18 4.6 99770 50
2011-02-15 07:00:08 51°24.318 2°53.174 2.6 21 4.6 99770 48
2011-02-15 07:00:13 51°24.336 2°53.18 4 19 4.6 99770 48
2011-02-15 07:00:18 51°24.353 2°53.185 3.9 18 4.6 99780 50
2011-02-15 07:00:22 51°24.366 2°53.19 3.4 17 4.6 99780 50
2011-02-15 07:00:28 51°24.387 2°53.196 4 20 4.6 99780 49
2011-02-15 07:00:33 51°24.404 2°53.202 5 22 4.6 99780 49
2011-02-15 07:00:38 51°24.422 2°53.207 4.7 18 4.6 99780 50
2011-02-15 07:00:43 51°24.439 2°53.214 5.9 22 4.6 99780 50
2011-02-15 07:00:48 51°24.456 2°53.219 5.2 23 4.6 99780 50
2011-02-15 07:00:53 51°24.473 2°53.224 4.9 19 4.6 99780 50
2011-02-15 07:00:58 51°24.49 2°53.23 5.3 24 4.6 99770 48
2011-02-15 07:01:03 51°24.508 2°53.236 2.3 17 4.6 99770 48
2011-02-15 07:01:08 51°24.525 2°53.241 4.4 22 4.6 99770 49
2011-02-15 07:01:13 51°24.542 2°53.246 4.7 26 4.6 99770 49
2011-02-15 07:01:18 51°24.56 2°53.251 4.9 25 4.6 99770 49
2011-02-15 07:01:23 51°24.577 2°53.256 4.5 25 4.6 99770 49
2011-02-15 07:01:28 51°24.594 2°53.261 4.3 29 4.6 99780 49
2011-02-15 07:01:33 51°24.612 2°53.266 3.8 25 4.6 99780 49
2011-02-15 07:01:38 51°24.629 2°53.271 3.8 26 4.6 99780 50
2011-02-15 07:01:43 51°24.647 2°53.276 2.5 15 4.6 99780 50
2011-02-15 07:01:48 51°24.664 2°53.28 2.9 21 4.5 99780 50
2011-02-15 07:01:53 51°24.681 2°53.286 3.1 18 4.5 99780 50
2011-02-15 07:01:58 51°24.699 2°53.291 3.7 20 4.5 99780 49
2011-02-15 07:02:03 51°24.716 2°53.297 2.8 20 4.5 99780 49
2011-02-15 07:02:08 51°24.733 2°53.302 3.4 6 4.5 99780 49
2011-02-15 07:02:13 51°24.75 2°53.307 2.6 20 4.5 99780 49
2011-02-15 07:02:18 51°24.767 2°53.313 5.1 18 4.6 99780 48
2011-02-15 07:02:23 51°24.785 2°53.318 5.5 23 4.6 99780 48
2011-02-15 07:02:28 51°24.802 2°53.325 5.8 25 4.5 99770 50
2011-02-15 07:02:33 51°24.819 2°53.33 5.4 22 4.5 99770 50
2011-02-15 07:02:38 51°24.836 2°53.336 4.2 21 4.6 99780 50
2011-02-15 07:02:42 51°24.85 2°53.341 5.3 16 4.6 99780 50
2011-02-15 07:02:48 51°24.87 2°53.349 4.8 20 4.6 99770 50
2011-02-15 07:02:53 51°24.887 2°53.355 3.8 25 4.6 99770 50
2011-02-15 07:02:58 51°24.905 2°53.361 4.2 25 4.5 99780 50
2011-02-15 07:03:03 51°24.922 2°53.367 3.8 23 4.5 99780 50
2011-02-15 07:03:08 51°24.939 2°53.372 3.5 21 4.5 99780 49
2011-02-15 07:03:13 51°24.956 2°53.378 4.4 19 4.5 99780 49
2011-02-15 07:03:18 51°24.973 2°53.384 4 19 4.5 99780 48
2011-02-15 07:03:23 51°24.99 2°53.389 4.3 21 4.5 99780 48
2011-02-15 07:03:28 51°25.008 2°53.395 4.3 24 4.5 99770 48
2011-02-15 07:03:33 51°25.025 2°53.401 4.1 23 4.5 99770 48
2011-02-15 07:03:38 51°25.042 2°53.406 3.5 19 4.5 99780 49
2011-02-15 07:03:43 51°25.059 2°53.412 3.3 21 4.5 99780 49
2011-02-15 07:03:48 51°25.077 2°53.417 3.6 22 4.5 99780 47
2011-02-15 07:03:53 51°25.094 2°53.423 4.2 21 4.5 99780 47
2011-02-15 07:03:58 51°25.111 2°53.427 4.9 19 4.5 99780 48
2011-02-15 07:04:03 51°25.129 2°53.433 4.5 24 4.5 99780 48
2011-02-15 07:04:08 51°25.146 2°53.438 4.4 24 4.5 99780 50
2011-02-15 07:04:13 51°25.164 2°53.443 3.1 21 4.5 99780 50
2011-02-15 07:04:18 51°25.181 2°53.448 3.6 21 4.6 99780 48
2011-02-15 07:04:22 51°25.195 2°53.453 4.2 26 4.6 99780 48
2011-02-15 07:04:28 51°25.216 2°53.459 4 20 4.5 99770 49
2011-02-15 07:04:33 51°25.233 2°53.464 3.9 16 4.5 99770 49
2011-02-15 07:04:38 51°25.25 2°53.469 2.7 16 4.5 99780 50
2011-02-15 07:04:43 51°25.268 2°53.474 4.4 13 4.5 99780 50
2011-02-15 07:04:48 51°25.286 2°53.478 4.6 23 4.5 99770 49
2011-02-15 07:04:53 51°25.303 2°53.482 4.5 21 4.5 99770 49
2011-02-15 07:04:58 51°25.32 2°53.487 4.1 26 4.5 99780 48
2011-02-15 07:05:03 51°25.338 2°53.491 3.6 18 4.5 99780 48
2011-02-15 07:05:08 51°25.355 2°53.496 4.8 22 4.5 99780 49
2011-02-15 07:05:13 51°25.372 2°53.501 4.8 18 4.5 99780 49
2011-02-15 07:05:18 51°25.39 2°53.506 4.3 17 4.5 99770 50
2011-02-15 07:05:23 51°25.407 2°53.511 3.4 10 4.5 99770 50
2011-02-15 07:05:28 51°25.424 2°53.516 5 18 4.5 99780 48
2011-02-15 07:05:33 51°25.442 2°53.521 4.6 19 4.5 99780 48
2011-02-15 07:05:38 51°25.459 2°53.527 4.1 19 4.5 99780 48
2011-02-15 07:05:43 51°25.476 2°53.532 4 23 4.5 99780 48
2011-02-15 07:05:48 51°25.494 2°53.537 4.1 22 4.5 99780 48
2011-02-15 07:05:53 51°25.511 2°53.542 4.7 16 4.5 99780 48
2011-02-15 07:05:58 51°25.528 2°53.547 4.5 13 4.5 99780 48
2011-02-15 07:06:03 51°25.546 2°53.553 5.5 19 4.5 99780 48
2011-02-15 07:06:08 51°25.563 2°53.558 4.7 18 4.5 99780 48
2011-02-15 07:06:13 51°25.581 2°53.564 5.1 19 4.5 99780 48
2011-02-15 07:06:18 51°25.598 2°53.569 6.4 20 4.5 99780 50
2011-02-15 07:06:23 51°25.615 2°53.575 4.9 24 4.5 99780 50
2011-02-15 07:06:28 51°25.632 2°53.58 4.4 26 4.5 99770 47
2011-02-15 07:06:33 51°25.65 2°53.586 5.1 15 4.5 99770 47
2011-02-15 07:06:38 51°25.667 2°53.591 4.4 20 4.5 99780 48
2011-02-15 07:06:43 51°25.684 2°53.596 4.5 21 4.5 99780 48
2011-02-15 07:06:48 51°25.701 2°53.601 4.2 21 4.5 99780 50
2011-02-15 07:06:53 51°25.719 2°53.607 3.6 13 4.5 99780 50
2011-02-15 07:06:58 51°25.736 2°53.613 4.4 19 4.5 99780 49
2011-02-15 07:07:02 51°25.75 2°53.617 3.8 24 4.5 99780 49
2011-02-15 07:07:08 51°25.77 2°53.624 3.5 21 4.5 99780 50
2011-02-15 07:07:13 51°25.788 2°53.629 3.5 14 4.5 99780 50
2011-02-15 07:07:18 51°25.806 2°53.635 3.8 19 4.5 99780 50
2011-02-15 07:07:23 51°25.823 2°53.64 5.2 22 4.5 99780 50
2011-02-15 07:07:27 51°25.837 2°53.644 4 22 4.5 99780 48
2011-02-15 07:07:33 51°25.858 2°53.65 4.6 23 4.5 99780 48
2011-02-15 07:07:38 51°25.876 2°53.655 4 26 4.5 99780 48
2011-02-15 07:07:42 51°25.89 2°53.658 4 27 4.5 99780 48
2011-02-15 07:07:48 51°25.911 2°53.664 4.3 25 4.5 99780 50
2011-02-15 07:07:53 51°25.929 2°53.67 4 31 4.5 99780 50
2011-02-15 07:07:58 51°25.946 2°53.674 4 26 4.5 99780 51
2011-02-15 07:08:03 51°25.964 2°53.679 2.8 30 4.5 99780 51
2011-02-15 07:08:08 51°25.981 2°53.682 2.7 25 4.6 99780 49
2011-02-15 07:08:13 51°25.999 2°53.687 3.9 26 4.6 99780 49
2011-02-15 07:08:18 51°26.017 2°53.691 3.7 28 4.5 99770 48
2011-02-15 07:08:22 51°26.031 2°53.696 3.2 28 4.5 99770 48
2011-02-15 07:08:28 51°26.052 2°53.7 3 27 4.5 99780 48
2011-02-15 07:08:33 51°26.069 2°53.706 3.4 20 4.5 99780 48
2011-02-15 07:08:38 51°26.087 2°53.711 2.9 23 4.5 99780 50
2011-02-15 07:08:43 51°26.104 2°53.716 3.8 25 4.5 99780 50
2011-02-15 07:08:48 51°26.122 2°53.721 4.9 21 4.5 99780 50
2011-02-15 07:08:53 51°26.139 2°53.726 4.7 23 4.5 99780 50
2011-02-15 07:08:58 51°26.157 2°53.731 5.1 24 4.5 99780 49
2011-02-15 07:09:03 51°26.175 2°53.736 4 25 4.5 99780 49
2011-02-15 07:09:08 51°26.192 2°53.742 4.3 21 4.5 99780 48
2011-02-15 07:09:13 51°26.209 2°53.747 3.7 22 4.5 99780 48
2011-02-15 07:09:18 51°26.227 2°53.752 3.5 17 4.5 99780 48
2011-02-15 07:09:23 51°26.245 2°53.757 4.8 19 4.5 99780 48
2011-02-15 07:09:27 51°26.259 2°53.762 5.1 17 4.5 99780 48
2011-02-15 07:09:33 51°26.28 2°53.769 4.4 21 4.5 99780 48
2011-02-15 07:09:38 51°26.298 2°53.774 3.9 19 4.5 99780 49
2011-02-15 07:09:42 51°26.311 2°53.778 3.2 26 4.5 99780 49
2011-02-15 07:09:48 51°26.333 2°53.785 2.9 29 4.5 99780 49
2011-02-15 07:09:53 51°26.35 2°53.791 2.4 26 4.5 99780 49
2011-02-15 07:09:58 51°26.367 2°53.796 2.7 23 4.5 99780 49
2011-02-15 07:10:03 51°26.385 2°53.801 2.4 20 4.5 99780 49
2011-02-15 07:10:08 51°26.403 2°53.806 3 16 4.5 99780 50
2011-02-15 07:10:13 51°26.42 2°53.811 4.3 22 4.5 99780 50
2011-02-15 07:10:18 51°26.438 2°53.816 3.9 23 4.6 99780 49
2011-02-15 07:10:23 51°26.456 2°53.82 1.8 21 4.6 99780 49
2011-02-15 07:10:28 51°26.473 2°53.825 1.9 11 4.5 99780 51
2011-02-15 07:10:33 51°26.491 2°53.829 4.4 27 4.5 99780 51
2011-02-15 07:10:38 51°26.508 2°53.834 5.1 22 4.6 99780 48
2011-02-15 07:10:43 51°26.526 2°53.837 4.1 22 4.6 99780 48
2011-02-15 07:10:48 51°26.544 2°53.842 4.6 26 4.6 99780 49
2011-02-15 07:10:53 51°26.562 2°53.846 4.2 23 4.6 99780 49
2011-02-15 07:10:58 51°26.579 2°53.852 4.5 19 4.6 99780 50
2011-02-15 07:11:02 51°26.593 2°53.857 5.2 17 4.6 99780 50
2011-02-15 07:11:08 51°26.614 2°53.863 4.7 13 4.6 99780 51
2011-02-15 07:11:13 51°26.632 2°53.868 4 21 4.6 99780 51
2011-02-15 07:11:18 51°26.649 2°53.874 4 26 4.6 99780 50
2011-02-15 07:11:22 51°26.663 2°53.878 2.2 24 4.6 99780 50
2011-02-15 07:11:28 51°26.685 2°53.884 4.3 18 4.6 99780 48
2011-02-15 07:11:33 51°26.702 2°53.888 3 20 4.6 99780 48
2011-02-15 07:11:38 51°26.72 2°53.894 2.8 21 4.6 99780 49
2011-02-15 07:11:42 51°26.734 2°53.898 3.7 20 4.6 99780 49
2011-02-15 07:11:48 51°26.755 2°53.904 3.5 16 4.6 99790 48
2011-02-15 07:11:53 51°26.773 2°53.91 3.7 19 4.6 99790 48
2011-02-15 07:11:58 51°26.79 2°53.916 4.1 25 4.6 99780 51
2011-02-15 07:12:03 51°26.808 2°53.921 3.9 23 4.6 99780 51
2011-02-15 07:12:08 51°26.825 2°53.927 2.9 19 4.6 99780 51
2011-02-15 07:12:13 51°26.843 2°53.932 4.1 17 4.6 99780 51
2011-02-15 07:12:18 51°26.86 2°53.938 4.4 18 4.6 99780 50
2011-02-15 07:12:23 51°26.878 2°53.943 3 17 4.6 99780 50
2011-02-15 07:12:28 51°26.895 2°53.949 3.4 23 4.6 99780 50
2011-02-15 07:12:33 51°26.913 2°53.954 4.7 19 4.6 99780 50
2011-02-15 07:12:38 51°26.93 2°53.96 5.1 19 4.6 99780 48
2011-02-15 07:12:43 51°26.948 2°53.965 4 21 4.6 99780 48
2011-02-15 07:12:48 51°26.965 2°53.971 4.2 26 4.6 99780 48
2011-02-15 07:12:53 51°26.982 2°53.977 4.4 25 4.6 99780 48
2011-02-15 07:12:58 51°26.999 2°53.983 4.3 25 4.6 99780 48
2011-02-15 07:13:03 51°27.017 2°53.988 3.1 20 4.6 99780 48
2011-02-15 07:13:08 51°27.035 2°53.994 4.6 13 4.6 99780 50
2011-02-15 07:13:13 51°27.053 2°53.999 4.6 18 4.6 99780 50
2011-02-15 07:13:18 51°27.07 2°54.005 6.3 19 4.6 99780 48
2011-02-15 07:13:23 51°27.088 2°54.01 5.2 20 4.6 99780 48
2011-02-15 07:13:28 51°27.105 2°54.016 5.9 21 4.6 99780 50
2011-02-15 07:13:33 51°27.123 2°54.02 5.2 16 4.6 99780 50
2011-02-15 07:13:38 51°27.14 2°54.026 5.4 20 4.6 99780 49
2011-02-15 07:13:42 51°27.154 2°54.03 5.8 19 4.6 99780 49
2011-02-15 07:13:48 51°27.175 2°54.036 5 18 4.6 99780 48
2011-02-15 07:13:53 51°27.193 2°54.041 5 20 4.6 99780 48
2011-02-15 07:13:58 51°27.21 2°54.046 5 23 4.5 99780 49
2011-02-15 07:14:03 51°27.227 2°54.051 5.6 21 4.5 99780 49
2011-02-15 07:14:08 51°27.245 2°54.056 3.9 24 4.5 99780 48
2011-02-15 07:14:13 51°27.262 2°54.061 4.4 20 4.5 99780 48
2011-02-15 07:14:18 51°27.28 2°54.066 0.4 30 4.6 99780 49
2011-02-15 07:14:23 51°27.297 2°54.072 0.1 24 4.6 99780 49
2011-02-15 07:14:28 51°27.314 2°54.077 0.1 24 4.6 99780 47
2011-02-15 07:14:33 51°27.332 2°54.083 3.9 19 4.6 99780 47
2011-02-15 07:14:38 51°27.349 2°54.089 5.4 19 4.5 99780 49
2011-02-15 07:14:43 51°27.366 2°54.096 4.4 23 4.5 99780 49
2011-02-15 07:14:48 51°27.384 2°54.102 5.5 24 4.5 99780 49
2011-02-15 07:14:53 51°27.402 2°54.108 4.7 16 4.5 99780 49
2011-02-15 07:14:58 51°27.419 2°54.114 4.9 13 4.5 99780 50
2011-02-15 07:15:03 51°27.436 2°54.119 3.5 25 4.5 99780 50
2011-02-15 07:15:08 51°27.454 2°54.125 3.9 20 4.5 99780 50
2011-02-15 07:15:13 51°27.472 2°54.13 4.2 23 4.5 99780 50
2011-02-15 07:15:18 51°27.489 2°54.136 4.1 24 4.5 99780 49
2011-02-15 07:15:23 51°27.507 2°54.14 3.3 21 4.5 99780 49
2011-02-15 07:15:28 51°27.525 2°54.145 3.3 15 4.5 99780 50
2011-02-15 07:15:33 51°27.543 2°54.15 3.8 24 4.5 99780 50
2011-02-15 07:15:38 51°27.56 2°54.155 3.7 20 4.5 99780 50
2011-02-15 07:15:43 51°27.578 2°54.16 0.6 14 4.5 99780 50
2011-02-15 07:15:48 51°27.595 2°54.165 0.2 21 4.5 99780 49
2011-02-15 07:15:53 51°27.613 2°54.171 0.1 22 4.5 99780 49
2011-02-15 07:15:58 51°27.631 2°54.176 0.1 22 4.5 99770 49
2011-02-15 07:16:02 51°27.645 2°54.18 -999 23 4.5 99770 49
2011-02-15 07:16:08 51°27.666 2°54.184 -999 23 4.5 99780 49
2011-02-15 07:16:13 51°27.684 2°54.186 -999 28 4.5 99780 49
2011-02-15 07:16:18 51°27.702 2°54.188 -999 23 4.5 99780 49
2011-02-15 07:16:23 51°27.72 2°54.189 -999 31 4.5 99780 49
2011-02-15 07:16:28 51°27.737 2°54.19 -999 31 4.5 99770 50
2011-02-15 07:16:33 51°27.755 2°54.192 -999 31 4.5 99770 50
2011-02-15 07:16:38 51°27.774 2°54.192 -999 32 4.5 99780 49
2011-02-15 07:16:43 51°27.792 2°54.192 -999 29 4.5 99780 49
2011-02-15 07:16:48 51°27.809 2°54.194 -999 22 4.5 99770 50
2011-02-15 07:16:53 51°27.827 2°54.195 -999 17 4.5 99770 50
2011-02-15 07:16:58 51°27.845 2°54.196 -999 25 4.5 99780 50
2011-02-15 07:17:03 51°27.863 2°54.197 -999 28 4.5 99780 50
2011-02-15 07:17:08 51°27.881 2°54.199 -999 29 4.5 99780 49
2011-02-15 07:17:13 51°27.898 2°54.201 0.1 23 4.5 99780 49
2011-02-15 07:17:18 51°27.916 2°54.204 0.1 19 4.5 99780 50
2011-02-15 07:17:22 51°27.93 2°54.206 0.1 25 4.5 99780 50
2011-02-15 07:17:28 51°27.952 2°54.21 4.4 18 4.5 99780 50
2011-02-15 07:17:33 51°27.969 2°54.213 3.7 22 4.5 99780 50